RH
61 66 72 77 79 80 82 81 83 84 83 81 77 78 83 86 90 90 87 83 83 83 80 76 74 74 73 70 66 64 62 59 58 56 52 44 41 45 46 44 44 43 45 46 45 44 43 44 45 46 47 48 47 44 41 38 36 35 35 35 36 37 36 32 29 30 33 35 37 38 38 38 38 38 39 39 38 39 40 43 45 48 53 55 55 57 58 54 51 52 51 52 51 50 52 52 47
63 69 75 80 83 84 85 81 83 87 87 84 79 78 84 89 90 89 87 85 83 81 79 76 75 75 74 67 63 63 60 59 55 52 49 42 41 44 44 44 44 43 44 43 43 42 42 43 44 45 46 45 44 42 41 39 38 37 37 37 37 37 34 32 31 32 35 37 38 37 35 36 36 37 37 36 36 36 38 42 45 50 54 56 57 59 60 57 50 49 52 52 50 50 51 52 50
66 72 77 81 85 85 86 85 84 89 90 86 83 79 84 90 89 89 87 85 82 79 78 76 76 76 72 68 64 63 62 59 53 49 46 42 41 42 43 43 42 42 42 41 41 41 42 43 44 44 43 42 42 41 41 40 39 38 38 37 35 33 33 32 32 33 34 36 36 37 38 40 40 42 41 36 34 34 36 39 44 52 56 56 58 58 58 57 53 50 50 50 51 53 51 52 52
69 75 80 82 87 88 89 91 89 90 91 87 85 82 85 91 89 89 86 83 80 78 77 75 77 75 72 71 66 61 62 60 50 45 44 41 41 42 42 43 41 40 40 40 40 41 42 43 42 42 41 41 41 41 40 40 39 38 36 34 32 32 34 33 33 33 35 36 39 41 42 44 45 47 47 40 34 33 36 41 48 54 57 59 59 55 54 55 55 53 48 45 49 52 53 55 54
73 79 84 84 89 91 92 95 93 91 90 88 87 86 87 90 89 87 85 82 80 79 76 73 74 72 69 70 67 63 61 58 48 42 41 39 39 41 42 42 41 39 39 40 40 40 41 41 40 40 40 41 42 41 40 39 37 36 34 32 32 33 35 34 34 34 35 38 41 42 43 47 49 50 52 47 41 40 42 48 55 57 58 61 60 55 53 52 51 50 46 43 47 51 52 57 58
77 82 86 87 90 91 94 96 94 93 91 89 88 89 90 90 89 88 85 83 82 80 76 71 70 69 70 70 69 64 58 53 46 40 39 38 37 39 40 40 40 39 40 40 40 40 40 40 39 41 41 41 41 40 39 37 35 34 34 33 33 35 36 37 36 35 37 40 42 43 46 49 52 54 55 53 51 50 52 56 59 60 59 60 61 55 51 52 50 45 44 47 53 57 54 54 57
79 83 87 91 92 91 93 94 93 95 93 90 89 90 92 91 88 87 86 84 82 80 76 71 66 68 72 70 67 61 54 50 44 39 38 37 36 37 38 38 38 38 40 40 40 40 40 40 40 41 42 42 41 39 37 36 36 35 35 36 37 38 40 40 39 39 41 43 44 48 50 51 53 55 55 55 56 56 57 59 59 60 60 60 61 55 50 49 47 45 48 53 57 60 60 60 62
79 83 87 90 92 91 93 93 92 94 93 92 90 89 91 90 87 85 85 82 80 79 75 69 64 69 73 69 65 59 53 48 43 39 36 36 35 34 36 35 36 37 39 39 39 40 39 40 41 41 41 41 40 39 38 38 39 38 37 39 41 42 43 43 42 43 43 44 47 50 51 52 54 54 55 55 58 58 58 59 58 59 59 59 59 54 48 42 43 48 52 56 57 61 65 68 69
80 84 86 88 91 91 91 93 93 94 95 93 91 89 89 89 87 85 85 82 79 77 73 68 64 69 73 68 64 58 54 48 42 38 35 35 34 33 34 34 35 36 38 39 39 39 40 42 43 42 41 42 42 41 40 41 41 40 39 40 43 43 43 44 43 43 43 44 47 50 51 51 51 52 53 56 59 57 57 58 57 58 57 54 55 54 47 41 43 50 54 57 58 61 64 67 69
82 85 86 89 90 89 90 92 93 95 95 91 89 89 88 88 88 84 84 83 78 76 71 66 64 67 72 68 61 57 54 47 41 37 35 35 33 33 34 34 35 35 36 38 39 41 41 44 46 46 45 45 44 42 41 42 42 40 39 40 43 43 45 46 45 44 45 46 48 50 50 49 49 50 51 54 57 56 55 56 56 56 53 50 52 53 49 43 43 49 52 56 58 59 62 66 69
83 85 86 88 90 90 91 93 94 95 95 91 87 88 88 87 87 84 84 83 78 76 71 66 66 66 69 65 59 56 51 45 40 37 36 34 33 33 34 35 35 35 35 37 39 40 41 44 48 49 47 47 45 42 43 44 44 42 40 41 44 46 48 50 49 47 46 48 48 49 49 49 49 48 49 51 54 56 56 56 55 53 50 50 52 52 51 47 44 47 49 51 55 57 60 64 66
83 86 85 88 91 91 93 95 96 95 93 93 91 89 88 88 86 84 84 81 77 76 71 65 65 65 66 64 57 54 48 43 40 37 36 33 32 33 34 34 34 35 35 36 36 38 42 46 49 48 47 48 46 46 47 47 45 42 40 42 46 48 50 50 51 49 48 47 46 47 48 49 48 48 49 51 54 55 56 56 55 53 51 52 52 51 52 48 43 46 47 48 53 55 57 60 62
83 85 86 89 91 92 92 93 96 96 94 93 91 89 87 87 85 83 81 79 77 73 68 62 60 61 64 62 54 50 46 42 39 37 35 32 31 32 32 33 34 35 34 35 36 39 42 45 47 47 47 48 47 48 49 46 43 42 42 45 48 50 51 51 51 50 48 46 45 46 48 49 50 51 51 51 53 54 55 56 55 54 54 55 54 53 51 48 44 46 47 47 50 53 55 57 58
83 85 87 90 90 92 93 93 95 98 96 91 89 89 87 86 84 83 80 81 80 70 64 59 55 59 61 59 51 46 44 40 38 36 32 29 29 29 29 31 33 33 34 35 37 39 40 43 46 46 47 48 48 48 47 45 44 45 46 48 48 49 51 51 51 50 47 45 45 45 47 52 53 53 55 54 54 54 55 56 55 55 56 56 57 56 54 50 47 47 49 50 50 51 52 53 55
83 85 87 87 89 93 94 93 92 93 93 90 90 89 86 85 84 83 80 82 80 67 61 57 53 57 58 54 48 44 42 38 36 34 30 29 27 27 27 30 33 34 35 36 36 39 40 43 46 46 47 47 47 48 47 47 47 48 49 49 49 49 51 51 51 50 47 45 44 44 46 52 56 56 58 57 56 55 56 57 56 55 55 55 56 57 56 54 51 51 53 55 55 52 52 54 57
82 86 88 85 87 92 93 92 90 90 90 90 91 89 86 85 84 83 82 81 77 66 62 56 50 53 52 50 47 42 39 36 35 32 30 29 27 28 31 33 36 36 35 36 37 40 42 44 46 46 46 46 46 47 48 49 49 50 50 49 49 50 51 51 51 51 50 49 47 47 48 52 57 59 59 59 58 57 58 58 57 56 55 54 55 55 55 55 55 55 57 58 58 56 56 56 56
84 87 87 85 87 90 92 92 90 89 88 89 90 88 87 86 85 85 83 83 79 69 62 55 50 49 48 46 44 40 38 37 35 32 31 30 28 30 35 37 37 35 35 37 38 41 42 44 45 45 46 46 45 46 48 49 48 49 49 50 51 51 52 52 52 53 52 51 51 51 51 52 56 60 61 61 61 60 59 59 58 57 56 56 54 53 53 53 55 57 59 60 60 61 60 57 56
87 87 84 85 88 90 91 90 89 88 87 88 89 87 87 87 86 86 85 84 80 71 64 57 53 49 45 43 41 38 38 38 36 34 32 30 28 32 37 38 36 34 36 38 38 41 43 44 45 44 45 46 46 47 48 47 48 48 48 50 51 51 52 52 52 52 50 49 50 51 52 53 55 59 62 62 62 62 61 62 62 59 57 56 53 51 52 52 54 56 59 61 61 61 60 55 54
85 83 82 85 87 89 87 87 88 88 88 87 88 88 88 88 87 86 86 84 79 72 66 59 54 51 45 43 41 39 38 37 35 34 33 31 30 33 36 36 35 35 38 38 38 40 43 44 44 43 43 44 45 47 48 48 49 49 49 50 49 48 49 49 47 47 46 46 48 50 54 56 56 58 60 62 63 64 65 64 62 59 58 57 54 50 49 50 50 52 56 59 59 58 57 52 50
84 82 83 84 85 87 85 85 86 85 87 87 89 89 88 89 86 85 85 83 80 74 69 62 58 54 48 45 42 39 38 35 34 33 33 32 31 30 32 33 35 36 37 37 38 40 42 43 42 42 42 42 43 45 47 48 49 49 50 49 47 46 45 45 43 42 43 44 46 49 52 55 57 58 58 60 62 64 65 63 62 62 61 57 54 50 47 46 46 49 53 55 56 55 54 52 49
84 83 82 81 81 86 86 85 84 84 88 89 89 90 89 89 86 85 83 83 82 74 70 68 61 56 50 47 42 39 37 35 33 33 33 34 32 28 29 32 35 36 36 37 39 40 41 41 40 41 40 41 41 43 46 47 46 47 47 46 45 44 43 43 41 40 42 43 46 48 52 54 54 57 59 59 59 62 63 64 65 65 61 56 53 49 46 46 48 49 50 51 51 51 51 50 48
82 80 77 75 76 83 85 85 85 85 87 89 90 91 91 89 87 85 81 81 81 73 68 66 62 57 51 47 42 39 37 34 32 33 33 33 31 27 29 33 35 36 36 37 38 40 40 39 39 40 39 38 39 40 44 45 44 44 43 43 43 43 43 43 42 42 43 44 46 51 54 54 54 56 59 59 58 61 63 64 65 63 59 55 52 48 46 47 48 48 48 49 48 47 48 47 46
79 76 72 71 73 77 83 83 83 84 86 89 90 91 92 89 87 84 79 80 80 74 68 63 61 59 53 46 41 38 36 33 32 33 33 32 29 27 29 32 34 35 36 36 38 39 38 38 39 40 37 36 37 38 41 43 43 42 42 42 42 43 43 45 45 44 44 45 48 53 56 55 54 56 59 61 60 59 61 62 61 59 57 53 49 47 46 47 47 47 49 49 48 47 46 46 45
74 75 70 69 69 72 79 81 82 85 87 88 87 89 90 87 87 84 81 81 79 75 68 61 61 59 53 48 42 39 38 35 34 34 33 30 29 27 28 31 33 34 34 35 37 38 37 37 39 39 37 37 37 38 41 44 44 43 42 43 44 44 45 46 45 45 46 47 49 53 57 58 56 56 58 61 62 60 58 58 58 57 55 52 49 48 48 48 47 47 49 50 49 48 47 45 44
70 73 70 67 67 67 73 77 81 83 85 86 87 89 86 84 87 86 82 82 79 74 68 62 61 58 53 49 44 41 41 39 36 35 33 31 31 29 29 31 33 33 32 33 36 36 36 36 37 38 38 38 39 39 42 45 44 42 42 44 44 44 45 45 45 46 47 48 52 56 61 61 59 57 57 60 61 60 57 56 56 56 55 53 51 50 50 50 48 47 48 49 48 47 46 45 43
68 71 68 65 66 67 70 73 76 82 85 85 87 90 86 83 88 87 83 81 79 75 68 63 60 56 52 49 45 42 41 39 36 35 35 34 34 31 28 30 33 32 32 31 33 35 36 36 37 37 37 39 39 40 43 44 42 41 43 45 43 43 45 47 49 50 49 51 56 61 63 62 60 59 59 59 59 57 55 55 54 54 55 54 53 52 52 51 49 48 48 49 48 47 45 44 43
64 66 65 63 63 67 71 71 73 79 84 84 85 89 88 86 87 88 86 81 80 76 70 64 59 54 51 49 46 43 42 40 37 36 36 36 36 33 29 29 31 32 33 32 33 36 37 36 35 34 36 38 38 40 41 40 40 42 45 45 43 44 46 48 52 54 53 55 60 61 61 62 62 60 59 58 58 57 55 55 54 54 55 55 55 53 53 52 50 49 49 50 49 48 46 44 43
63 64 64 66 64 68 71 71 73 78 84 84 84 88 87 86 87 86 85 83 80 76 71 65 58 53 51 50 47 45 43 41 39 37 36 35 34 33 30 28 29 31 33 33 33 36 38 36 34 33 36 38 37 38 38 38 39 42 44 44 44 46 47 49 53 56 56 57 60 61 61 63 62 60 57 56 56 56 55 55 56 55 55 57 57 55 54 52 51 51 51 51 50 49 47 45 43
62 62 64 69 68 70 72 73 75 78 84 85 82 87 88 86 86 85 83 82 80 76 72 67 60 54 50 50 49 46 44 40 39 38 35 32 30 32 31 28 28 31 33 34 35 36 37 34 33 35 36 38 37 36 37 38 39 41 42 43 45 48 50 53 56 58 59 60 62 63 62 63 62 61 58 56 55 55 56 56 56 55 55 57 57 56 54 52 51 52 52 52 51 51 51 48 44
56 58 66 72 70 71 71 74 78 79 85 85 81 84 86 85 85 85 83 80 78 76 73 67 61 57 51 50 51 49 45 40 38 37 35 33 30 31 32 30 28 31 33 35 36 36 36 33 34 37 38 38 37 37 38 38 38 40 41 42 45 49 54 57 59 61 61 61 63 63 63 62 62 62 59 56 55 55 55 55 55 54 54 55 57 56 54 52 50 51 52 51 51 53 54 51 47
49 54 65 70 70 74 73 75 78 79 84 84 81 85 85 82 83 84 83 81 77 75 73 67 60 56 51 49 50 49 45 39 38 37 36 34 30 28 32 32 29 31 33 35 36 36 35 34 35 38 38 38 38 38 38 37 38 39 39 41 45 49 56 58 59 60 60 61 61 61 60 59 58 58 56 53 53 53 54 54 53 53 52 54 55 55 54 52 51 52 53 50 50 54 55 53 50
47 50 60 65 68 74 75 75 77 78 83 82 81 85 86 82 81 82 83 82 79 75 73 67 59 56 50 47 48 47 45 41 39 38 36 35 31 27 28 32 31 30 33 35 36 36 35 34 36 37 37 38 39 38 38 37 37 37 37 40 44 49 55 58 58 58 58 57 57 59 58 56 54 52 52 51 51 51 51 52 53 53 53 54 53 53 53 53 53 52 51 50 50 53 54 54 52
47 48 58 65 66 73 76 75 75 76 83 82 80 84 85 82 80 82 83 82 80 77 74 68 61 58 53 48 47 45 45 43 40 39 38 36 34 29 26 29 31 31 32 33 35 36 35 35 36 37 36 38 39 38 38 37 36 34 34 37 41 45 50 55 56 55 55 54 55 57 56 55 53 51 50 50 50 50 49 50 51 52 53 54 53 51 52 53 54 53 51 50 51 52 53 53 52
47 47 54 60 62 70 77 75 72 74 80 81 80 83 83 79 78 82 84 82 80 78 78 73 66 63 58 53 49 45 44 43 41 39 38 36 35 32 28 27 29 31 31 31 33 35 36 36 38 38 36 38 39 39 38 36 35 33 33 35 38 40 45 53 54 54 55 53 53 54 54 55 52 50 49 49 49 49 48 49 50 51 52 54 53 52 51 53 53 52 51 51 51 52 52 52 51
45 46 49 54 56 63 72 75 70 68 73 77 79 81 78 76 76 81 84 83 81 80 80 77 72 68 62 57 53 46 43 43 41 39 38 37 36 34 31 29 27 29 31 31 32 34 37 37 38 38 36 37 39 38 37 35 35 34 33 35 36 36 42 51 52 52 53 51 50 50 52 53 50 49 48 47 48 48 48 48 48 49 52 53 53 51 50 51 52 51 51 51 50 51 52 51 49
41 43 45 50 54 56 64 67 63 61 65 69 71 69 68 71 73 76 81 83 83 81 80 78 74 70 64 59 57 51 44 41 41 40 38 37 36 35 33 31 29 29 29 31 32 33 36 37 37 37 36 35 37 37 36 35 35 35 35 37 36 35 39 47 48 48 49 48 49 49 49 49 48 48 47 46 47 47 47 47 47 48 50 52 52 51 50 50 50 50 51 51 50 50 51 50 48
39 42 44 48 53 55 56 56 57 59 60 62 61 59 61 67 70 71 76 80 81 79 78 76 73 71 67 62 59 54 47 42 40 41 40 37 36 36 34 32 31 29 28 29 31 32 34 36 36 36 36 35 35 35 34 34 34 35 37 37 36 36 38 41 43 45 46 47 48 47 45 45 46 47 47 47 46 46 46 46 46 47 49 51 51 50 50 50 50 50 51 51 50 50 50 49 48
38 41 44 48 52 55 53 52 56 59 59 60 59 59 60 62 66 69 72 76 78 76 73 73 73 72 70 66 61 56 53 48 42 41 40 38 37 36 35 33 32 30 29 28 29 30 31 33 35 35 35 35 34 33 32 33 33 36 37 37 37 37 37 39 41 44 45 46 45 44 43 44 44 45 45 46 45 45 45 45 45 46 47 49 50 50 49 50 50 51 51 51 51 50 49 48 47
38 40 43 49 52 54 53 53 58 61 60 60 60 60 58 57 62 67 70 72 75 76 73 73 74 72 70 68 64 59 57 53 44 41 41 38 36 36 35 33 31 30 30 28 28 29 30 31 32 33 33 33 33 32 32 32 33 36 37 36 38 38 37 39 42 44 45 43 42 42 42 43 44 44 44 43 43 43 44 43 43 45 46 47 48 49 49 49 50 50 50 50 50 48 47 46 46
34 38 40 47 50 52 51 52 59 61 60 59 59 61 60 57 60 64 68 70 72 76 75 75 74 71 69 68 66 63 60 55 46 42 42 40 35 35 34 33 31 30 30 28 27 28 29 29 29 31 31 31 31 31 31 33 34 36 37 36 39 40 38 39 42 45 45 42 41 43 44 44 44 44 43 42 41 41 42 42 42 43 45 44 45 47 48 49 49 49 48 48 47 46 45 45 45
31 33 36 41 46 48 48 49 57 61 60 59 60 66 66 60 60 62 65 68 70 73 75 73 71 69 68 68 68 67 62 56 49 43 41 42 39 34 33 33 31 30 29 28 27 26 27 28 28 28 29 29 30 29 30 33 34 35 36 37 39 40 38 38 41 43 43 42 42 44 44 44 44 44 44 43 41 40 39 41 41 41 42 42 43 43 45 47 47 46 46 45 44 43 43 43 42
28 29 30 35 40 43 42 45 54 60 61 57 57 70 72 64 62 62 63 66 68 70 71 70 69 69 69 68 68 68 66 61 54 47 42 41 40 36 33 32 31 29 28 28 27 26 25 26 27 27 27 28 29 28 29 32 34 33 34 35 37 37 37 36 38 41 42 42 44 44 44 44 44 45 45 44 42 40 39 39 41 42 42 41 41 42 44 46 46 45 45 44 43 42 42 42 42
27 26 26 30 35 38 38 41 46 52 56 53 51 63 70 65 61 62 64 66 67 67 67 67 67 68 68 67 67 67 68 66 61 56 49 44 41 39 34 32 31 30 28 28 27 26 25 25 26 26 25 26 27 27 28 31 32 32 33 33 33 35 37 36 37 40 41 43 45 47 46 45 44 46 47 46 44 43 41 40 41 42 42 41 41 42 43 45 46 45 45 44 44 43 43 44 44
25 22 23 28 31 33 36 37 38 41 44 48 52 58 65 65 59 59 63 66 67 65 64 63 64 64 66 67 66 66 67 67 65 62 56 49 44 41 39 34 31 31 30 29 27 26 26 25 24 25 25 24 26 26 27 29 30 30 31 32 33 34 36 37 39 41 42 42 44 46 46 45 45 48 50 48 46 45 44 42 42 42 42 41 41 41 42 43 44 44 45 44 44 43 44 44 45
25 21 21 24 27 31 33 33 34 35 34 40 52 56 62 67 60 57 62 64 64 62 59 60 61 61 64 66 66 66 66 66 65 64 60 54 47 43 42 38 33 31 31 29 28 26 26 26 24 23 23 24 25 25 26 27 28 28 30 31 32 33 34 37 40 41 42 42 42 43 42 41 42 46 49 50 48 46 45 44 43 42 42 42 42 42 42 42 41 42 43 44 44 44 43 43 44
25 23 20 20 24 28 29 30 31 33 30 33 45 51 57 66 62 57 61 60 57 56 57 58 59 59 62 64 65 66 66 65 65 65 63 58 52 45 43 42 37 33 32 31 29 28 26 25 24 23 22 23 24 24 24 27 27 27 28 29 30 32 32 35 39 40 41 40 39 39 38 36 36 38 42 46 47 45 44 44 44 43 43 43 43 42 42 41 40 40 41 43 44 45 43 43 44
23 23 21 20 23 26 29 34 31 29 31 31 36 43 48 56 58 55 57 55 52 53 56 56 57 59 61 64 65 66 66 65 65 66 66 63 57 51 45 42 40 36 34 33 31 29 26 24 24 24 22 21 22 23 23 26 27 26 27 26 27 28 30 32 35 37 38 38 37 35 33 31 30 30 32 36 39 41 41 41 40 41 40 41 42 42 42 41 40 39 40 42 44 45 45 45 45
23 24 24 23 25 27 29 32 28 27 32 31 33 38 40 47 53 51 53 54 52 54 55 55 56 58 60 64 65 65 65 65 67 68 68 66 62 57 49 43 42 40 36 34 32 30 28 25 24 24 23 21 21 22 22 24 26 26 26 25 25 25 27 29 31 32 35 36 35 32 30 29 28 27 27 29 31 35 38 38 38 37 36 36 38 40 41 40 39 39 39 41 43 45 46 46 46
23 26 26 26 28 28 27 31 29 27 30 28 29 36 40 45 48 48 52 53 52 54 55 56 56 55 57 60 62 63 63 64 66 67 68 67 64 60 52 44 43 42 39 35 32 31 29 26 24 23 23 22 20 20 21 22 25 26 26 25 24 24 24 26 28 29 31 34 35 32 29 27 26 26 26 27 27 29 33 35 35 35 34 33 35 38 41 41 39 39 39 40 42 43 44 45 46
22 26 27 27 30 29 30 34 32 27 27 24 26 35 41 41 41 45 52 52 51 51 52 51 51 53 57 59 60 61 61 61 62 65 68 68 66 60 53 48 46 44 42 38 33 31 30 28 25 23 23 22 21 20 20 20 22 24 25 25 25 23 22 23 25 26 27 30 33 32 30 28 26 25 25 27 27 27 28 31 33 34 34 33 33 36 40 42 42 40 39 40 42 42 41 41 44
22 25 25 26 31 31 32 34 30 26 26 24 30 39 41 36 36 42 49 51 51 49 47 44 42 46 52 58 61 61 59 59 58 62 66 67 66 62 56 53 49 45 43 41 37 33 30 28 26 24 23 22 21 21 19 19 20 21 22 23 24 23 22 21 23 24 24 26 29 30 30 28 26 24 24 26 28 28 26 27 30 31 32 33 34 34 37 41 41 40 38 38 40 40 39 39 40
23 25 25 25 27 28 29 31 30 26 25 29 34 35 32 29 30 36 43 47 50 49 46 43 41 41 43 47 55 58 58 58 56 59 63 64 65 63 59 57 54 48 44 41 39 36 31 29 28 26 25 23 21 21 19 18 17 19 20 21 22 21 21 22 22 22 22 22 25 27 28 27 25 24 23 24 26 28 27 26 27 29 30 32 33 34 35 38 38 37 36 35 37 38 39 39 38
25 26 26 25 24 25 27 28 30 28 25 28 31 28 27 26 23 29 38 45 49 49 46 43 43 43 43 43 47 52 56 57 56 57 59 62 64 63 60 58 56 53 48 42 40 38 34 31 29 28 27 25 23 21 19 18 17 17 18 19 20 20 20 20 20 21 20 20 22 24 25 26 25 23 23 24 25 27 28 27 26 27 28 29 31 32 33 35 37 36 35 33 34 37 40 39 38
27 27 26 25 23 25 27 27 31 31 27 26 30 35 37 34 30 31 37 44 49 49 48 47 45 44 46 47 47 49 53 56 58 58 58 60 63 63 61 59 58 56 53 47 43 39 37 33 31 29 28 26 24 22 20 19 18 17 16 17 18 18 19 18 19 19 20 20 20 21 22 23 23 23 23 23 24 25 27 28 27 26 27 28 29 31 31 33 34 34 34 34 33 36 39 39 39
26 26 25 25 26 27 28 28 29 31 32 29 32 41 43 43 44 43 44 49 51 50 51 50 49 46 46 50 51 49 50 53 57 59 58 59 60 62 63 61 59 57 57 53 47 42 38 35 33 31 28 27 27 25 22 20 20 18 16 15 16 17 17 18 18 19 19 20 20 20 20 20 21 22 22 22 23 24 25 27 28 27 26 26 28 30 31 31 32 33 33 33 33 35 37 37 38
26 26 26 26 28 29 28 29 28 31 38 35 34 43 46 45 48 51 54 56 52 50 51 50 50 48 48 53 55 51 48 49 52 55 57 58 60 62 64 63 60 58 58 57 52 46 40 37 35 32 30 30 28 26 24 21 21 20 18 16 15 15 16 17 18 19 19 19 19 20 19 19 19 19 20 21 21 22 23 26 27 27 26 26 27 29 32 32 32 32 32 32 33 34 35 36 37
27 28 29 27 28 29 29 31 29 31 39 43 45 50 45 40 45 52 56 56 52 50 47 47 48 47 49 55 56 51 47 46 48 51 54 58 61 63 63 64 62 61 60 59 56 52 45 40 36 34 33 31 29 27 25 23 21 21 20 18 15 15 15 16 17 17 18 18 19 19 19 19 18 18 18 19 20 21 22 22 22 23 24 24 25 27 29 31 31 31 31 31 31 33 34 35 36
27 28 30 28 29 31 34 35 31 33 38 41 48 51 42 35 41 50 54 54 53 52 46 44 45 45 49 56 56 51 45 41 42 47 52 55 60 63 64 65 64 63 62 60 58 55 51 44 39 36 34 32 30 29 26 25 23 22 22 20 18 16 15 16 16 16 16 17 17 18 18 19 19 18 17 17 18 19 20 20 19 19 20 21 23 24 25 27 29 30 31 30 30 31 32 33 34